Location: Livorno
(43.5500°N, 10.3170°E)
Time: 17:21:09
(UTC+01:00)

ISS - Visible Passes

Search period start: 30 November 2023 00:00
Search period end: 10 December 2023 00:00
Orbit: 416 x 417 km, 51.6° (Epoch: 30 November)

Date Brightness Start Highest point End Pass type
(mag) Time Alt. Az. Time Alt. Az. Time Alt. Az.
30 Nov -2.3 17:29:44 10° NW 17:32:30 23° NNE 17:34:45 13° ENE visible
30 Nov -1.5 19:06:18 10° NW 19:07:41 22° NW 19:07:41 22° NW visible
01 Dec -3.5 18:17:56 10° NW 18:21:13 47° NNE 18:21:29 46° NE visible
02 Dec -2.9 17:29:33 10° NW 17:32:39 34° NNE 17:35:23 12° E visible
02 Dec -1.9 19:06:15 10° WNW 19:08:19 30° W 19:08:19 30° W visible
03 Dec -3.7 18:17:39 10° WNW 18:21:00 75° SW 18:22:23 32° SE visible
04 Dec -3.8 17:29:04 10° NW 17:32:25 68° NNE 17:35:45 10° ESE visible
04 Dec -1.1 19:06:33 10° W 19:08:49 17° SW 19:09:39 16° SSW visible
05 Dec -1.7 18:17:26 10° WNW 18:20:21 28° SW 18:23:16 10° SSE visible
06 Dec -2.7 17:28:32 10° WNW 17:31:47 48° SW 17:35:00 10° SE visible
07 Dec -0.3 18:18:21 10° WSW 18:19:17 11° SW 18:20:13 10° SW visible
08 Dec -0.7 17:28:18 10° W 17:30:42 19° SW 17:33:06 10° S visible
